User: anonymous   Login
Location: Caltech
(34.1382°N, 118.1253°W)
Time: 03:55:01
(UTC-08:00)
Language:

CZ-2C R/B - Orbit

View from above orbital plane
View from above orbital plane
View from above satellite
View from above satellite

Ground track
Ground track

The orbit data is extracted from the following two-line orbital elements,

1 36089U 09061B   17345.96252571 +.00000045 +00000-0 +22525-4 0  9998
2 36089 098.0603 339.9442 0081238 217.5697 195.1925 14.49698788427376
Epoch (UTC): 11 December 2017 23:06:02
Eccentricity: 0.0081238
inclination: 98.0603°
perigee height: 669 km
apogee height: 784 km
right ascension of ascending node: 339.9442°
argument of perigee: 217.5697°
revolutions per day: 14.49698788
mean anomaly at epoch: 195.1925°
orbit number at epoch: 42737

The dashed part of the orbit path shows where the satellite is in the earth's shadow,  

DLR